Regional Weather Roundup
Issued by NWS

Home | Current Version | Previous Version | Text Only | Print | Product List | Glossary Off
Versions: 1 2 3 4 5 6 7 8 9 10 11 12 13 14 15 16 17 18 19 20 21 22 23 24 25 26 27 28 29 30 31 32 33 34 35 36 37 38 39 40 41 42 43 44 45 46 47 48 49 50

000
ASUS45 KTFX 261504
RWRMT
MONTANA HOURLY WEATHER ROUNDUP
NATIONAL WEATHER SERVICE GREAT FALLS MT
804 AM MST FRI DEC 26 2014

NOTE: "FAIR" INDICATES FEW OR NO CLOUDS BELOW 12000 FEET WITH NO
SIGNIFICANT WEATHER AND/OR OBSTRUCTIONS TO VISIBILITY.

* THESE STATIONS ARE NOT UNDER NWS QUALITY CONTROL. THEY DO NOT
   REPORT WEATHER SUCH AS PRECIPITATION OR FOG.

MTZ001>007-043-261600-
WEST OF THE DIVIDE
CITY           SKY/WX    TMP DP  RH WIND       PRES   REMARKS
KALISPELL      LGT SNOW  21  21 100 CALM      30.09R
MISSOULA       CLOUDY    21  19  92 W3        30.11R
BUTTE          CLOUDY    14  10  84 E5        29.99R WCI   6
MULLAN PASS    FOG       19  16  88 VRB5      29.97R VSB 1 1/4 WCI  12
* ESSEX        N/A       23  19  85 SE4        N/A
* LINCOLN      N/A       21  18  88 S2G8       N/A
* LOOKOUT PASS N/A       22  19  88 NE4        N/A
* POLSON       N/A       24  23  96 N/A        N/A
* RONAN APT    PTSUNNY   27  25  92 N/A        N/A
* SEELEY LAKE  N/A       19  17  92 N/A        N/A
* THOMP F APT  SUNNY     14   3  61 NW5G14     N/A   WCI   6
$$

MTZ008-052>055-261600-
SOUTHWEST MONTANA
CITY           SKY/WX    TMP DP  RH WIND       PRES   REMARKS
BOZEMAN        CLOUDY    12   9  88 CALM      30.03S
DILLON         LGT SNOW  14   9  80 CALM      30.00R
* W YELLOWSTON PTCLDY   -21 -29  65 N/A        N/A
* THREE FORKS  PTSUNNY   16 -40   6 N/A        N/A
* BOULDER HILL N/A       17  11  77 SW6        N/A   WCI   8
* MONIDA PASS  N/A       12   7  80 N9         N/A
* RAYNOLDS PAS N/A        1  -2  87 N/A        N/A
* WHITEHALL    N/A       17  12  81 SE2        N/A
* WISE RIVER   N/A       10   6  84 NE1        N/A
$$

MTZ009>010-012-014-046-048-049-054-261600-
EAST SLOPES AND CENTRAL MONTANA
CITY           SKY/WX    TMP DP  RH WIND       PRES   REMARKS
CUT BANK       PTSUNNY   12  10  92 NW14      30.07R WCI  -4
GREAT FALLS    FOG       21  19  92 N14       30.05R WCI   8
HELENA         CLOUDY    19  16  88 W5        30.06R WCI  12
* DEARBORN     N/A       20  19  96 S2         N/A
* EAST GLACIER N/A       16  11  81 NE2        N/A
* MONARCH      N/A       16  12  84 NW13       N/A   WCI   2
* PENDROY      N/A       17  16  96 VRB11G16    N/A   WCI   4
* ROGERS PASS  N/A       17  15  92 SE1        N/A
* SWEET GRASS  N/A       16  16 100 N16        N/A   WCI   1
$$

MTZ011-013-016-021-035-040-045-047-050-051-261600-
NORTH CENTRAL MONTANA
CITY           SKY/WX    TMP DP  RH WIND       PRES   REMARKS
HAVRE          LGT SNOW  21  19  92 W5        30.06R VSB 3    WCI  14
LEWISTOWN      CLOUDY    18  12  77 SE3       29.98S
* N BAR RANCH  CLOUDY    19  14  81 NW5       29.97R WCI  12
* CHESTER      N/A       19  16  88 SW3        N/A
* DENTON       N/A       18  11  74 NW10       N/A   WCI   6
* GEYSER       N/A       20  17  88 W24G29     N/A   WCI   3
* JUDITH GAP   N/A       16  16 100 S1         N/A
* LOMA         N/A       19  16  88 S3         N/A
$$

MTZ017>020-022>027-061-062-261600-
NORTHEAST MONTANA
CITY           SKY/WX    TMP DP  RH WIND       PRES   REMARKS
GLASGOW        CLOUDY    18  12  77 E12       30.07S WCI   5
GLENDIVE       CLOUDY    16  12  84 NE5       30.11R WCI   8
JORDAN         PTSUNNY   21  18  88 SE3       30.05S
SIDNEY         CLOUDY    12  10  92 CALM      30.17R VSB 3
WOLF POINT     CLOUDY    14  10  84 E7        30.14R WCI   4
* BEAVER HILL  N/A       19  14  81 N/A        N/A
* CIRCLE       N/A       21  18  88 N/A        N/A
* LINDSAY DVD  N/A       19  16  88 N/A        N/A
* NAVAJO       N/A        8   5  87 SW3        N/A
* SACO         N/A       18  15  88 NE8        N/A   WCI   8
$$

MTZ028>042-056>058-261600-
SOUTHCENTRAL AND SOUTHEAST MONTANA
CITY           SKY/WX    TMP DP  RH WIND       PRES   REMARKS
BAKER          CLOUDY    19  14  81 SW8       30.09R WCI   9
BILLINGS       SUNNY      9   3  76 SW15      30.03R WCI  -8
LIVINGSTON     LGT SNOW  12   9  88 W3        30.00R
MILES CITY     CLOUDY    21  18  88 S5        30.09R WCI  14
* LAUREL APT   PTCLDY     3  -2  79 N/A        N/A
* ROUNDUP APT  PTCLDY     1  -8  65 SW5        N/A   WCI  -9
* ALZADA       N/A       18  13  81 NW2        N/A
* HYSHAM       N/A       17  13  84 W6         N/A   WCI   8
* REED POINT   N/A        2  -1  87 W4         N/A
* ROSCOE HILL  N/A       16  -2  45 S10        N/A   WCI   4
$$

REGIONAL REPORTS...DAKOTAS
CITY           SKY/WX    TMP DP  RH WIND       PRES   REMARKS
WILLISTON      CLOUDY    12   9  88 CALM      30.16R
DICKINSON      CLOUDY    18  10  71 NW7       30.09R WCI   9
BEACH          CLOUDY    16  16 100 E3        30.10R
CROSBY         FOG        3   1  91 N5        30.18R VSB 3/4  WCI  -7
WATFORD CITY   LGT SNOW  14  10  84 NW5       30.13R WCI   6
BISMARCK       CLOUDY    12   9  88 N10       30.19R WCI  -1
GRAND FORKS    CLOUDY    23  18  81 NW12      30.16R WCI  11
FARGO          CLOUDY    25  18  75 N13       30.14R WCI  13
BUFFALO SD     PTCLDY    19  12  74 N5        30.03R WCI  12
RAPID CITY     CLOUDY    19  14  81 N7        30.08R WCI  10
$$

REGIONAL REPORTS...WYOMING/IDAHO/WASHINGTON
CITY           SKY/WX    TMP DP  RH WIND       PRES   REMARKS
GILLETTE       SNOW      18  12  77 CALM      30.02R VSB 1/2
SHERIDAN       PTCLDY     7   3  83 SW5       30.03R WCI  -2
CODY           CLOUDY    18  14  84 CALM      29.97S
YELLOWSTONE LA PTCLDY    -9 -13  82 CALM      29.89R
SALMON         CLOUDY    19  14  81 N3        30.06S
MULLAN PASS    FOG       19  16  88 VRB5      29.97S VSB 1 1/4 WCI  12
SAND POINT     PTCLDY    23  23 100 CALM      30.19R
SPOKANE        SUNNY     21  19  92 CALM      30.18R
$$

REGIONAL REPORTS...SASKATCHEWAN
CITY           SKY/WX    TMP DP  RH WIND       PRES   REMARKS
SWIFT CURRENT  LGT SNOW   9   5  84 SE6       30.05S WCI  -1

$$




USA.gov is the U.S. government's official web portal to all federal, state and local government web resources and services.